www.pogodaiklimat.ru

Погода и климат >> Архив погоды >> Индонезия >> Surabaya Gedangan


ПОГОДА в Surabaya Gedangan

  • Прогноз погоды в Surabaya Gedangan
  • Монитор погоды в Surabaya Gedangan
  • Климат города

АРХИВ ПОГОДЫ в Surabaya Gedangan

Время (UTC), дата Ветер
(напр.,м/с)
 
Видим.   Явления Облачность Т
(С)
Тd
(С)
f
(%)
Тe
(С)
Тes
(С)
Комфортность P
(гПа)
Po
(гПа)
Тmin
(С)
Tmax
(С)
R
(мм)
R24
(мм)
S
(см)
09 10.12 С 2 10 км {дождь} 6/3 600 м
[Cu hum As trans Ci fib]
+31.0 +26.0 75 +46 +48 опасность
перегрева
1006.1 1005.8 0.0
12 10.12 штиль 0 9000 м {дождь} 10/4 600 м
[Cu hum As trans Ci fib]
+29.0 +24.7 78 +41 +41 опасность
перегрева
1008.1 1007.8 +35.5 0.0
15 10.12 Ю 2 8000 м 8/3 600 м
[Cu hum As trans Ci fib]
+27.8 +24.5 82 +39 +39 очень
душно
1007.9 1007.3
18 10.12 З 2 8000 м 8/4 600 м
[Cu hum As trans Ci fib]
+27.6 +24.9 85 +39 +39 очень
душно
1008.1 1007.8
21 10.12 штиль 0 9000 м 6/3 600 м
[Cu hum As trans Ci fib]
+27.4 +25.2 88 +40 +40 очень
душно
1008.1 1007.8
00 11.12 СЗ 2 9000 м 6/3 600 м
[Cu hum Ac trans Ci fib]
+28.4 +25.3 83 +41 +43 опасность
перегрева
1009.9 1009.6 +27.0 0.0
03 11.12 СЗ 3 10 км 10/4 600 м
[Cu med, cong As op]
+32.1 +25.6 69 +47 +49 опасность
перегрева
1009.9 1009.6
06 11.12 ЮВ 1 10 км в посл. час дождь 10/5 600 м
[Cu med, cong As op]
+33.1 +27.6 73 +53 +55 опасность
перегрева
1007.7 1007.3 1
09 11.12 СВ 1 9000 м 10/3 600 м
[Cu Sc As op]
+31.7 +27.0 76 +49 +50 опасность
перегрева
1006.5 1006.1
12 11.12 СВ 3 7000 м слабый дождь 10/4 600 м
[Cu med, cong As op]
+28.3 +25.6 85 +42 +42 опасность
перегрева
1008.4 1008.0 +34.2 6
15 11.12 СВ 2 8000 м гроза, ливневой дождь 10/4
[Cb cap As op]
+27.3 +25.4 89 +40 +40 очень
душно
1009.7 1009.4 2
18 11.12 С 1 8000 м {гроза, дождь} 6/1 700 м
[Sc Ac trans Cs]
+27.5 +25.9 91 +41 +41 опасность
перегрева
1008.4 1008.0 0.3
21 11.12 штиль 0 8000 м 3/0
[Cs]
+27.3 +26.1 93 +41 +41 опасность
перегрева
1008.0 1007.6
00 12.12 Ю 1 9000 м 8/1 600 м
[Cu hum Ac As Ci fib]
+27.5 +25.3 88 +40 +43 очень
душно
1009.5 1009.1 +26.5 9
03 12.12 СВ 2 10 км 9/4 600 м
[Cu med, cong As op Ci fib]
+31.2 +26.3 75 +47 +53 опасность
перегрева
1009.8 1009.4
06 12.12 С 2 11 км 9/4 600 м
[Cu med, cong As op Ci fib]
+33.7 +26.2 65 +50 +56 опасность
перегрева
1007.9 1007.6
09 12.12 С 2 9000 м 10/5 600 м
[Cu med, cong As op]
+30.5 +26.5 79 +47 +47 опасность
перегрева
1006.8 1006.4
12 12.12 штиль 0 8000 м 9/4 600 м
[Cu hum As trans Ci fib]
+29.6 +26.4 83 +45 +45 опасность
перегрева
1009.0 1008.7 +33.9
15 12.12 ЮВ 1 7000 м в посл. час дождь {гроза} 8/4 600 м
[Cu hum As trans Ci fib]
+26.6 +25.3 93 +39 +39 очень
душно
1010.0 1009.7 4
18 12.12 З 2 8000 м {дождь} 9/4 600 м
[Cu hum As trans Ci fib]
+26.3 +24.5 90 +37 +37 очень
душно
1009.5 1009.1 4
21 12.12 штиль 0 8000 м слабый дождь 10/4 600 м
[Cu hum As op]
+26.2 +24.7 91 +37 +37 очень
душно
1008.9 1008.5 0.0
00 13.12 штиль 0 7000 м {дождь} 10/0
[As op]
+26.2 +25.1 94 +38 +39 очень
душно
1010.3 1010.0 +26.1 5
03 13.12 С 2 7000 м слабый дождь 10/0
[As op]
+27.4 +25.8 91 +41 +44 опасность
перегрева
1011.8 1011.4 0.9
06 13.12 С 3 9000 м {дождь} 10/1 600 м
[Cu hum As op]
+29.4 +25.9 81 +44 +47 опасность
перегрева
1009.5 1009.1 0.0
09 13.12 СЗ 3 10 км 10/3 600 м
[Cu hum As op Ci sp]
+29.4 +25.4 79 +43 +44 опасность
перегрева
1007.4 1007.0
12 13.12 С 3 9000 м 10/3 600 м
[Cu hum As op Ci sp]
+28.4 +25.4 84 +42 +42 опасность
перегрева
1009.5 1009.1 +29.8
15 13.12 С 2 9000 м 10/3 600 м
[Cu hum As op Cs]
+28.0 +25.3 85 +41 +41 опасность
перегрева
1010.6 1010.2
18 13.12 штиль 0 8000 м слабый дождь 10/4 600 м
[Cu med, cong As op]
+27.5 +24.9 86 +39 +39 очень
душно
1010.1 1009.7 0.6
21 13.12 Ю 1 8000 м {дождь} 10/4 600 м
[Sc diur, vesp As op Cs]
+25.2 +23.3 89 +34 +34 очень
душно
1009.1 1008.7 0.3
00 14.12 З 2 9000 м {дождь} 6/1 600 м
[Cu hum Ac trans Ci fib]
+25.9 +23.4 86 +35 +38 очень
душно
1010.6 1010.2 +24.6 0.9
03 14.12 В 2 11 км 6/4 600 м
[Cu med, cong As trans Ci fib]
+31.6 +26.0 72 +47 +56 опасность
перегрева
1010.6 1010.2
06 14.12 СВ 5 10 км гроза без осадков 9/5 600 м
[Cb cap As trans Ci fib]
+31.7 +25.4 69 +46 +48 опасность
перегрева
1008.9 1008.5
09 14.12 СЗ 2 10 км 9/5 600 м
[Sc diur, vesp As op Ci fib]
+31.2 +25.9 73 +46 +47 опасность
перегрева
1007.7 1007.4
12 14.12 ЮЗ 2 9000 м 10/5 600 м
[Sc diur, vesp As op Ci fib]
+28.9 +24.1 75 +40 +40 очень
душно
1010.1 1009.7 +33.1
15 14.12 штиль 0 9000 м 10/5 600 м
[Sc diur, vesp As op]
+27.7 +24.6 83 +39 +39 очень
душно
1011.1 1010.7
18 14.12 З 2 9000 м 10/0
[As trans Ci fib]
+27.1 +24.7 87 +39 +39 очень
душно
1009.4 1009.1
21 14.12 штиль 0 9000 м 10/3 600 м
[Sc As trans Ci fib]
+26.7 +24.8 89 +38 +38 очень
душно
1009.3 1008.9
00 15.12 ЮЗ 3 10 км 4/1 600 м
[Cu hum Ci fib]
+27.6 +25.2 87 +40 +43 очень
душно
1010.8 1010.4 +25.6
03 15.12 СЗ 2 11 км 5/3 600 м
[Cu med, cong Ci fib]
+31.8 +24.8 67 +45 +57 опасность
перегрева
1010.2 1009.8
06 15.12 СЗ 2 11 км 6/4 600 м
[Cu med, cong As trans Ci fib]
+35.3 +25.5 57 +50 +58 опасность
перегрева
1007.5 1007.2
09 15.12 С 2 8000 м в посл. час дождь 10/4 600 м
[Cu hum As op]
+31.5 +26.2 74 +48 +48 опасность
перегрева
1006.9 1006.6 2
12 15.12 ЮЗ 2 7000 м слабый дождь 10/5 600 м
[Cu hum As op]
+28.0 +24.8 83 +40 +40 очень
душно
1010.8 1010.4 +35.5 0.0
15 15.12 ЮЗ 2 8000 м {дождь} 3/1 600 м
[Cu hum As trans Ci fib]
+27.2 +25.2 89 +39 +39 очень
душно
1011.4 1011.0 0.5
18 15.12 З 2 8000 м {дождь} 1/0
[Ci fib]
+26.8 +25.2 91 +39 +39 очень
душно
1010.5 1010.3 0.5
21 15.12 штиль 0 8000 м 1/0
[Ci fib]
+26.5 +24.9 91 +38 +38 очень
душно
1010.0 1009.6
00 16.12 штиль 0 10 км 8/3 600 м
[Cu hum As trans Ci fib]
+27.4 +25.2 88 +40 +42 очень
душно
1012.0 1011.7 +26.4 2
03 16.12 С 2 10 км 9/4 600 м
[Cu hum As trans Ci fib]
+30.6 +25.2 73 +44 +51 опасность
перегрева
1012.1 1011.7
06 16.12 СЗ 2 11 км 8/4 600 м
[Cu med, cong Ac trans Ci fib]
+33.8 +25.8 63 +49 +56 опасность
перегрева
1009.8 1009.5
09 16.12 В 3 10 км 10/4 600 м
[Cu med, cong As op]
+33.3 +25.2 63 +48 +48 опасность
перегрева
1008.6 1008.2
12 16.12 ЮВ 2 8000 м 9/4 600 м
[Cu med, cong As op Ci fib]
+30.9 +24.0 67 +43 +43 опасность
перегрева
1010.1 1009.7 +34.2
15 16.12 С 2 8000 м 6/3 600 м
[Cu hum As op Ci fib]
+29.6 +24.7 75 +42 +42 опасность
перегрева
1011.4 1011.1
18 16.12 З 1 8000 м 5/3 600 м
[Cu hum Ci fib]
+28.4 +24.3 78 +40 +40 очень
душно
1009.9 1009.6
21 16.12 штиль 0 8000 м 4/0
[Ci fib]
+26.8 +23.5 82 +36 +36 очень
душно
1009.9 1009.5
00 17.12 В 3 9000 м 5/0
[As trans Ci fib]
+26.1 +24.0 88 +36 +38 очень
душно
1011.7 1011.3 +26.0
03 17.12 В 3 10 км 6/3 600 м
[Cu hum Ac trans Ci fib]
+32.5 +24.0 61 +44 +52 опасность
перегрева
1011.8 1011.4
06 17.12 СЗ 2 10 км 9/5 600 м
[Cu med, cong As trans Ci fib]
+35.1 +23.6 51 +46 +51 опасность
перегрева
1009.5 1009.2

 

Местоположение метеостанции Surabaya Gedangan (Индонезия): широта -7.22 долгота 113.71 высота над уровнем моря 113 м.

В архиве по умолчанию представлена погода в Surabaya Gedangan за последнюю неделю. Архивные данные за месяц целиком и за предыдущие месяцы, начиная с января 2011 года, Вы можете получить, выбрав интересующий диапазон дат из раскрывающегося списка и нажав кнопку "Ввод!".


*Определитесь, кто Вы:
робот инопланетянин человек

Внимание! Время в таблицах - всемирное. Для получения местного времени необходимо прибавить поправку, которая в Surabaya Gedangan равна 7 ч.

Смотрите также архив погоды в соседних городах и на ближайших метеорологических станциях:

Погода в Kalianget (Индонезия) (33 км)
Погода в Juanda Int Airport (Индонезия) (106 км)
Погода в Surabaya Perak (Индонезия) (110 км)
Погода в Banyuwangi (Индонезия) (134 км)
Погода в Sangkapura (Индонезия) (194 км)
Погода в Denpasar (Индонезия) (233 км)
Погода в Mataram (Индонезия) (297 км)
Погода в Semarang (Индонезия) (365 км)
Погода в Achmad Yani Int Airport (Индонезия) (369 км)
Погода в Sumbawa Besar (Индонезия) (431 км)

Пояснения к столбцам:

Ветер - указаны скорость ветра в м/с - средняя за 10 мин, порывы в срок и между сроками (в фигурных скобках) и направление, откуда дует ветер: С - северный, СВ - северо-восточный, В - восточный, ЮВ - юго-восточный, Ю - южный, ЮЗ - юго-западный, З - западный, СЗ - северо-западный.
Видимость - горизонтальная дальность видимости в метрах или километрах. При видимости от 1 до 10 км при отсутствии осадков обычно наблюдается дымка, при ухудшении видимости до 1 км и менее - туман. В сухую погоду видимость может ухудшаться дымом, пылью или мглою.
Явления - указаны атмосферные явления, наблюдавшиеся в срок или в последний час перед сроком; фигурными скобками обозначены явления, наблюдавшиеся между сроками (за 1-3 часа до срока); квадратными скобками обозначены град или гололедные отложения с указанием их диаметра в мм.
Облачность - указаны через наклонную черту общая и нижняя облачность в баллах и высота нижней границы облаков в метрах; квадратными скобками обозначены формы облаков: Ci - перистые, Cs - перисто-слоистые, Cc - перисто-кучевые, Ac - высококучевые, As - высокослоистые, Sc - слоисто-кучевые, Ns - слоисто-дождевые, Cu - кучевые, Cb - кучево-дождевые. Подробнее классификацию облаков см. в Атласе облаков (PDF).
T - Температура воздуха - температура, измеренная на высоте 2 м над землей.
Td - Температура точки росы - температура, при понижении до которой содержащийся в воздухе водяной пар достигнет насыщения.
f - Относительная влажность воздуха - влажноcть воздуха, измеренная на высоте 2 м над землей.
Te - Эффективная температура - температура, которую ощущает одетый по сезону человек в тени. Характеристика душности погоды. При расчете учитывается влияние влажности воздуха и скорости ветра на теплоощущения человека.
Tes - Эффективная температура на солнце - температура, которую ощущает человек, с поправкой на солнечный нагрев. Характеристика знойности погоды. Зависит от высоты солнца над горизонтом, облачности и скорости ветра. Ночью, в пасмурную погоду, а также при ветре 12 м/с и более поправка равна нулю.
P - Атмосферное давление - приведенное к уровню моря атмосферное давление.
Po - Атмосферное давление - измеренное на уровне метеостанции атмосферное давление.
Tmin - Минимальная температура - минимум температуры воздуха на высоте 2 м над землей.
Tmax - Максимальная температура - максимум температуры воздуха на высоте 2 м над землей.
R - Количество осадков - Количество выпавших осадков за период времени, мм. При наведении курсора мыши на число - период времени, за который выпало указанное количество осадков.
R24 - Количество осадков - Количество выпавших осадков за 24 часа, мм.
S - Снежный покров - Высота снежного покрова, см. При наведении курсора мыши на число - состояние снежного покрова и степень покрытия местности в баллах.